| time (UTC) | temp C | wind direction | speed KPH | gust KPH | rain 1hr cm | rain 24hr cm | rain mn cm | humidity % | barometer mb |
| 20260903050044 | 23 | 163 | 6.4 | 12.9 | 0.00 | 0.00 | 0.00 | 41 | 1006.3 |
| 20260903045105 | 23 | 164 | 4.8 | 9.7 | 0.00 | 0.00 | 0.00 | 41 | 1006.4 |
| 20260903044104 | 23 | 167 | 6.4 | 14.5 | 0.00 | 0.00 | 0.00 | 41 | 1006.2 |
| 20260903043030 | 24 | 198 | 6.4 | 14.5 | 0.00 | 0.00 | 0.00 | 40 | 1006.2 |
| 20260903042049 | 24 | 190 | 6.4 | 19.3 | 0.00 | 0.00 | 0.00 | 40 | 1006.2 |
| 20260903041112 | 25 | 212 | 8.0 | 19.3 | 0.00 | 0.00 | 0.00 | 39 | 1006.2 |
| 20260903040047 | 25 | 4 | 9.7 | 17.7 | 0.00 | 0.00 | 0.00 | 39 | 1006.1 |
| 20260903035047 | 25 | 196 | 9.7 | 22.5 | 0.00 | 0.00 | 0.00 | 38 | 1006.2 |
| 20260903032958 | 25 | 4 | 9.7 | 17.7 | 0.00 | 0.00 | 0.00 | 38 | 1006.1 |
| 20260903030818 | 25 | 203 | 9.7 | 17.7 | 0.00 | 0.00 | 0.00 | 38 | 1005.9 |
| 20260903024622 | 25 | 177 | 8.0 | 22.5 | 0.00 | 0.00 | 0.00 | 37 | 1005.7 |
| 20260903023610 | 26 | 148 | 9.7 | 22.5 | 0.00 | 0.00 | 0.00 | 36 | 1005.6 |
| 20260903022545 | 26 | 4 | 9.7 | 19.3 | 0.00 | 0.00 | 0.00 | 32 | 1005.3 |
| 20260903020345 | 26 | 157 | 8.0 | 17.7 | 0.00 | 0.00 | 0.00 | 31 | 1005.3 |
| 20260903015335 | 26 | 177 | 8.0 | 17.7 | 0.00 | 0.00 | 0.00 | 30 | 1005.2 |
| 20260903013157 | 26 | 160 | 12.9 | 22.5 | 0.00 | 0.00 | 0.00 | 29 | 1005.0 |
| 20260903012153 | 27 | 166 | 8.0 | 17.7 | 0.00 | 0.00 | 0.00 | 29 | 1004.9 |
| 20260903011134 | 27 | 195 | 12.9 | 24.1 | 0.00 | 0.00 | 0.00 | 29 | 1004.9 |
| 20260903010151 | 27 | 154 | 12.9 | 24.1 | 0.00 | 0.00 | 0.00 | 29 | 1004.9 |
| 20260903005215 | 27 | 157 | 9.7 | 22.5 | 0.00 | 0.00 | 0.00 | 29 | 1004.8 |
| 20260903004152 | 27 | 144 | 11.3 | 22.5 | 0.00 | 0.00 | 0.00 | 28 | 1004.9 |
| 20260903003144 | 28 | 179 | 14.5 | 27.4 | 0.00 | 0.00 | 0.00 | 27 | 1004.8 |
| 20260903002120 | 29 | 200 | 12.9 | 27.4 | 0.00 | 0.00 | 0.00 | 27 | 1004.7 |
| 20260903001141 | 29 | 176 | 9.7 | 25.7 | 0.00 | 0.00 | 0.00 | 27 | 1004.7 |
| 20260903000110 | 29 | 175 | 12.9 | 25.7 | 0.00 | 0.00 | 0.00 | 26 | 1004.8 |
| 20260902233926 | 30 | 148 | 9.7 | 19.3 | 0.00 | 0.00 | 0.00 | 24 | 1004.9 |
| 20260902232852 | 30 | 125 | 11.3 | 24.1 | 0.00 | 0.00 | 0.00 | 23 | 1005.0 |
| 20260902231822 | 30 | 162 | 12.9 | 24.1 | 0.00 | 0.00 | 0.00 | 23 | 1005.0 |
| 20260902230751 | 31 | 4 | 9.7 | 22.5 | 0.00 | 0.00 | 0.00 | 23 | 1005.1 |
| 20260902225746 | 31 | 175 | 8.0 | 25.7 | 0.00 | 0.00 | 0.00 | 23 | 1005.2 |
| 20260902224737 | 30 | 200 | 9.7 | 27.4 | 0.00 | 0.00 | 0.00 | 24 | 1005.4 |
| 20260902223716 | 30 | 198 | 14.5 | 27.4 | 0.00 | 0.00 | 0.00 | 24 | 1005.4 |
| 20260902222655 | 31 | 169 | 11.3 | 27.4 | 0.00 | 0.00 | 0.00 | 23 | 1005.4 |
| 20260902221652 | 31 | 165 | 11.3 | 27.4 | 0.00 | 0.00 | 0.00 | 24 | 1005.6 |
| 20260902220630 | 30 | 127 | 11.3 | 20.9 | 0.00 | 0.00 | 0.00 | 24 | 1005.7 |
| 20260902215623 | 30 | 160 | 11.3 | 25.7 | 0.00 | 0.00 | 0.00 | 25 | 1005.7 |
| 20260902214612 | 31 | 146 | 14.5 | 25.7 | 0.00 | 0.00 | 0.00 | 24 | 1005.8 |
| 20260902213611 | 31 | 148 | 3.2 | 19.3 | 0.00 | 0.00 | 0.00 | 25 | 1006.0 |
| 20260902212549 | 30 | 193 | 9.7 | 29.0 | 0.00 | 0.00 | 0.00 | 26 | 1006.1 |
| 20260902210457 | 30 | 167 | 9.7 | 19.3 | 0.00 | 0.00 | 0.00 | 25 | 1006.5 |
| 20260902205430 | 30 | 210 | 6.4 | 24.1 | 0.00 | 0.00 | 0.00 | 27 | 1006.7 |
| 20260902204423 | 29 | 198 | 9.7 | 24.1 | 0.00 | 0.00 | 0.00 | 26 | 1006.9 |
| 20260902203431 | 30 | 192 | 11.3 | 20.9 | 0.00 | 0.00 | 0.00 | 26 | 1007.1 |
| 20260902202449 | 31 | 176 | 9.7 | 20.9 | 0.00 | 0.00 | 0.00 | 24 | 1007.3 |
| 20260902201447 | 30 | 197 | 8.0 | 24.1 | 0.00 | 0.00 | 0.00 | 26 | 1007.5 |
| 20260902195350 | 30 | 115 | 11.3 | 20.9 | 0.00 | 0.00 | 0.00 | 26 | 1007.9 |
| 20260902194342 | 29 | 223 | 9.7 | 19.3 | 0.00 | 0.00 | 0.00 | 25 | 1008.0 |
| 20260902193326 | 29 | 139 | 8.0 | 20.9 | 0.00 | 0.00 | 0.00 | 25 | 1008.3 |
| 20260902192347 | 29 | 117 | 9.7 | 27.4 | 0.00 | 0.00 | 0.00 | 24 | 1008.5 |
| 20260902191409 | 28 | 250 | 11.3 | 27.4 | 0.00 | 0.00 | 0.00 | 24 | 1008.5 |
| 20260902190434 | 30 | 173 | 11.3 | 22.5 | 0.00 | 0.00 | 0.00 | 23 | 1008.6 |
| 20260902185457 | 28 | 140 | 11.3 | 25.7 | 0.00 | 0.00 | 0.00 | 24 | 1008.7 |
| 20260902184427 | 29 | 4 | 11.3 | 25.7 | 0.00 | 0.00 | 0.00 | 24 | 1009.0 |
| 20260902183418 | 28 | 198 | 9.7 | 19.3 | 0.00 | 0.00 | 0.00 | 25 | 1009.0 |
| 20260902182417 | 28 | 219 | 12.9 | 22.5 | 0.00 | 0.00 | 0.00 | 25 | 1009.1 |
| 20260902181438 | 28 | 156 | 11.3 | 22.5 | 0.00 | 0.00 | 0.00 | 24 | 1009.1 |
| 20260902180421 | 28 | 4 | 8.0 | 25.7 | 0.00 | 0.00 | 0.00 | 23 | 1009.2 |
| 20260902173141 | 27 | 4 | 11.3 | 22.5 | 0.00 | 0.00 | 0.00 | 24 | 1009.5 |
| 20260902170951 | 27 | 180 | 9.7 | 19.3 | 0.00 | 0.00 | 0.00 | 30 | 1009.5 |
| 20260902165933 | 26 | 202 | 9.7 | 19.3 | 0.00 | 0.00 | 0.00 | 33 | 1009.7 |
| 20260902162647 | 25 | 156 | 9.7 | 19.3 | 0.00 | 0.00 | 0.00 | 39 | 1009.6 |
| 20260902161704 | 25 | 157 | 8.0 | 19.3 | 0.00 | 0.00 | 0.00 | 40 | 1009.6 |
| 20260902160729 | 25 | 4 | 8.0 | 19.3 | 0.00 | 0.00 | 0.00 | 41 | 1009.6 |
| 20260902155658 | 25 | 210 | 8.0 | 17.7 | 0.00 | 0.00 | 0.00 | 42 | 1009.5 |
| 20260902153516 | 25 | 160 | 6.4 | 16.1 | 0.00 | 0.00 | 0.00 | 40 | 1009.4 |
| 20260902152459 | 24 | 202 | 8.0 | 19.3 | 0.00 | 0.00 | 0.00 | 40 | 1009.4 |
| 20260902150325 | 23 | 230 | 8.0 | 17.7 | 0.00 | 0.00 | 0.00 | 44 | 1009.4 |
| 20260902145344 | 22 | 213 | 8.0 | 17.7 | 0.00 | 0.00 | 0.00 | 44 | 1009.5 |
| 20260902144346 | 22 | 215 | 9.7 | 17.7 | 0.00 | 0.00 | 0.00 | 43 | 1009.5 |
| 20260902143324 | 22 | 233 | 11.3 | 19.3 | 0.00 | 0.00 | 0.00 | 42 | 1009.4 |
| 20260902142300 | 21 | 217 | 11.3 | 22.5 | 0.00 | 0.00 | 0.00 | 41 | 1009.4 |
| 20260902141324 | 21 | 212 | 11.3 | 22.5 | 0.00 | 0.00 | 0.00 | 43 | 1009.3 |
| 20260902135209 | 20 | 201 | 8.0 | 14.5 | 0.00 | 0.00 | 0.00 | 50 | 1009.3 |
| 20260902134146 | 19 | 4 | 6.4 | 17.7 | 0.00 | 0.00 | 0.00 | 52 | 1009.3 |
| 20260902133153 | 18 | 4 | 8.0 | 17.7 | 0.00 | 0.00 | 0.00 | 53 | 1009.3 |
| 20260902132138 | 18 | 214 | 8.0 | 16.1 | 0.00 | 0.00 | 0.00 | 54 | 1008.9 |
| 20260902131120 | 18 | 194 | 8.0 | 14.5 | 0.00 | 0.00 | 0.00 | 54 | 1008.9 |
| 20260902124914 | 18 | 177 | 8.0 | 16.1 | 0.00 | 0.00 | 0.00 | 55 | 1008.6 |
| 20260902123917 | 18 | 223 | 8.0 | 14.5 | 0.00 | 0.00 | 0.00 | 55 | 1008.5 |
| 20260902122942 | 18 | 213 | 8.0 | 16.1 | 0.00 | 0.00 | 0.00 | 54 | 1008.3 |
| 20260902121930 | 18 | 216 | 9.7 | 16.1 | 0.00 | 0.00 | 0.00 | 54 | 1008.1 |
| 20260902120946 | 18 | 4 | 8.0 | 16.1 | 0.00 | 0.00 | 0.00 | 55 | 1008.1 |
| 20260902120006 | 19 | 213 | 8.0 | 16.1 | 0.00 | 0.00 | 0.00 | 55 | 1008.2 |
| 20260902114959 | 19 | 216 | 9.7 | 16.1 | 0.00 | 0.00 | 0.00 | 55 | 1008.2 |
| 20260902113954 | 19 | 213 | 9.7 | 16.1 | 0.00 | 0.00 | 0.00 | 55 | 1008.2 |
| 20260902112956 | 19 | 4 | 8.0 | 14.5 | 0.00 | 0.00 | 0.00 | 55 | 1008.2 |
| 20260902111938 | 19 | 214 | 8.0 | 12.9 | 0.00 | 0.00 | 0.00 | 56 | 1008.2 |
| 20260902110905 | 19 | 195 | 6.4 | 12.9 | 0.00 | 0.00 | 0.00 | 55 | 1008.2 |
| 20260902105920 | 20 | 4 | 8.0 | 14.5 | 0.00 | 0.00 | 0.00 | 55 | 1008.1 |
| 20260902104918 | 20 | 221 | 8.0 | 16.1 | 0.00 | 0.00 | 0.00 | 54 | 1008.1 |
| 20260902103849 | 20 | 215 | 8.0 | 16.1 | 0.00 | 0.00 | 0.00 | 54 | 1008.1 |
| 20260902100656 | 20 | 4 | 6.4 | 14.5 | 0.00 | 0.00 | 0.00 | 53 | 1008.2 |
| 20260902095645 | 20 | 173 | 8.0 | 12.9 | 0.00 | 0.00 | 0.00 | 52 | 1008.1 |
| 20260902094653 | 20 | 219 | 8.0 | 12.9 | 0.00 | 0.00 | 0.00 | 52 | 1008.2 |
| 20260902093646 | 20 | 203 | 8.0 | 14.5 | 0.00 | 0.00 | 0.00 | 52 | 1008.2 |
| 20260902091433 | 19 | 4 | 4.8 | 9.7 | 0.00 | 0.00 | 0.00 | 53 | 1008.3 |
| 20260902090428 | 19 | 214 | 6.4 | 9.7 | 0.00 | 0.00 | 0.00 | 53 | 1008.2 |
| 20260902085407 | 19 | 229 | 6.4 | 9.7 | 0.00 | 0.00 | 0.00 | 53 | 1008.2 |
| 20260902083246 | 20 | 221 | 4.8 | 9.7 | 0.00 | 0.00 | 0.00 | 51 | 1008.3 |
| 20260902082247 | 19 | 4 | 6.4 | 9.7 | 0.00 | 0.00 | 0.00 | 51 | 1008.3 |
| 20260902081223 | 20 | 215 | 4.8 | 12.9 | 0.00 | 0.00 | 0.00 | 50 | 1008.4 |
| 20260902080215 | 20 | 4 | 6.4 | 12.9 | 0.00 | 0.00 | 0.00 | 49 | 1008.4 |
| 20260902074035 | 20 | 215 | 4.8 | 9.7 | 0.00 | 0.00 | 0.00 | 49 | 1008.5 |
| 20260902073044 | 20 | 223 | 4.8 | 8.0 | 0.00 | 0.00 | 0.00 | 49 | 1008.5 |
| 20260902072020 | 20 | 214 | 4.8 | 8.0 | 0.00 | 0.00 | 0.00 | 49 | 1008.5 |
| 20260902070956 | 20 | 221 | 4.8 | 8.0 | 0.00 | 0.00 | 0.00 | 49 | 1008.4 |
| 20260902065946 | 20 | 223 | 4.8 | 8.0 | 0.00 | 0.00 | 0.00 | 49 | 1008.5 |
| 20260902064923 | 20 | 215 | 6.4 | 9.7 | 0.00 | 0.00 | 0.00 | 49 | 1008.5 |
| 20260902063915 | 20 | 212 | 6.4 | 9.7 | 0.00 | 0.00 | 0.00 | 49 | 1008.5 |
| 20260902062908 | 20 | 221 | 4.8 | 8.0 | 0.00 | 0.00 | 0.00 | 48 | 1008.5 |
| 20260902060723 | 20 | 212 | 4.8 | 8.0 | 0.00 | 0.00 | 0.00 | 48 | 1008.6 |
| 20260902054626 | 20 | 218 | 3.2 | 8.0 | 0.00 | 0.00 | 0.00 | 48 | 1008.7 |
| 20260902053621 | 21 | 4 | 3.2 | 6.4 | 0.00 | 0.00 | 0.00 | 48 | 1008.7 |
| 20260902052550 | 21 | 4 | 3.2 | 8.0 | 0.00 | 0.00 | 0.00 | 47 | 1008.6 |
| 20260902051518 | 21 | 215 | 4.8 | 9.7 | 0.00 | 0.00 | 0.00 | 47 | 1008.8 |
| 20260902050459 | 21 | 194 | 4.8 | 11.3 | 0.00 | 0.00 | 0.00 | 46 | 1008.8 |